Terminal Aerodrome Forecast
Issued by NWS Dallas/Fort Worth, TX

Home | Current Version | Previous Version | Text Only | Print | Product List | Glossary On
Versions: 1 2 3 4 5 6 7 8 9 10 11 12 13 14 15 16 17 18 19 20 21 22 23 24
000
FTUS44 KFWD 231136
TAFACT
TAF
KACT 231136Z 2312/2412 36008KT P6SM BKN090
     FM232100 03007KT P6SM VCTS SCT050CB
     FM240300 04006KT P6SM VCSH BKN050
     FM240900 07005KT P6SM OVC012=

USA.gov is the U.S. government's official web portal to all federal, state and local government web resources and services.